Location: Abyssinia Baptist Church
(32.7840°N, 96.7578°W)
Time: 20:29:06
(UTC+00:00)

SKYMED 2 - Pass Details

Date: 03 July 2022
Orbit: 621 x 623 km, 97.9° (Epoch: 09 August)

Event Time Altitude Azimuth Distance (km) Brightness Sun altitude
Rises 10:31:56 0° 119° (ESE) 2,894 7.4 -10.0°
Reaches altitude 10° 10:35:34 10° 86° (E) 1,993 7.2 -9.4°
Maximum altitude 10:37:01 12° 67° (ENE) 1,892 7.5 -9.2°
Drops below altitude 10° 10:38:29 10° 47° (NE) 1,997 7.8 -8.9°
Sets 10:42:07 0° 15° (NNE) 2,909 7.8 -8.3°
